Location: Crescent
(42.8242°N, 73.7329°W)
Time: 15:36:39
(UTC+00:00)

A-11 Canister half - Pass Details

Date: 23 February 2026
Orbit: 1525 x 1683 km, 47.3° (Epoch: 9 March)

Event Time Altitude Azimuth Distance (km) Brightness Sun altitude
Rises 01:42:45 0° 295° (WNW) 4,682 12.6 -34.6°
Reaches altitude 10° 01:45:47 10° 293° (WNW) 3,694 11.8 -35.1°
Maximum altitude 01:55:00 70° 212° (SSW) 1,611 8.9 -36.6°
Enters shadow 01:55:04 70° 210° (SSW) 1,611 8.9 -36.7°
